Location: Agadir-Ikarkaouin
(31.1503°N, 9.0246°W)
Time: 04:02:59
(UTC+00:00)

Cosmos 1707 - Pass Details

Date: 18 September 2020
Orbit: 515 x 530 km, 82.5° (Epoch: 23 October)

Event Time Altitude Azimuth Distance (km) Brightness Sun altitude
Rises 19:20:10 0° 15° (NNE) 2,637 6.2 -9.9°
Reaches altitude 10° 19:23:00 10° 38° (NE) 1,744 5.1 -10.5°
Maximum altitude 19:25:22 16° 77° (ENE) 1,415 4.3 -11.1°
Enters shadow 19:25:45 16° 84° (E) 1,424 4.3 -11.1°
